Location: Amsterdam
(30.7274°N, 84.4357°W)
Time: 20:43:12
(UTC+00:00)

Tiros 1 despin weight - Pass Details

Date: 24 February 2026
Orbit: 556 x 593 km, 48.2° (Epoch: 9 March)

Event Time Altitude Azimuth Distance (km) Brightness Sun altitude
Rises 22:09:58 0° 325° (NW) 2,735 ? 16.3°
Reaches altitude 10° 22:14:28 10° 9° (N) 1,835 ? 15.4°
Maximum altitude 22:15:02 10° 17° (NNE) 1,820 ? 15.2°
Drops below altitude 10° 22:15:35 10° 25° (NNE) 1,834 ? 15.1°
Sets 22:20:04 0° 69° (ENE) 2,728 ? 14.2°
